Weather History for Iowa Falls, IA

Change the Weather History Date:

Friday, February 15, 2013

  Actual Average Record
Temperature  
Mean Temperature 18 °F -  
Max Temperature 24 °F 29 °F 57 °F (1954)
Min Temperature 13 °F 11 °F -15 °F (1963)
Degree Days  
Heating Degree Days 46    
Moisture  
Dew Point 11 °F    
Average Humidity 74    
Maximum Humidity 81    
Minimum Humidity 63    
Precipitation  
Precipitation 0.00 in - - ()
Sea Level Pressure  
Sea Level Pressure 30.26 in    
Wind  
Wind Speed 13 mph (NW)    
Max Wind Speed 20 mph    
Max Gust Speed 23 mph    
Visibility 10 miles    
Events      
Averages and records for this station are not official NWS values.
T = Trace of Precipitation, MM = Missing Value Source: NWS Daily Summary

Daily Weather History Graph

Daily Weather History Graph

Search for Another Location

Airport:

Trip Planner

Search our weather history database for the weather conditions in past years. The results will help you decide how hot, cold, wet, or windy it might be!

Date:

Astronomy

Feb. 15, 2013 Rise Set
Actual Time 7:09 AM CST 5:45 PM CST
Civil Twilight 6:40 AM CST 6:14 PM CST
Nautical Twilight 6:07 AM CST 6:47 PM CST
Astronomical Twilight 5:35 AM CST 7:20 PM CST
Moon 9:37 AM CST (2/15) 11:56 PM CST (2/15)
Length of Visible Light 11h 34m
Length of Day
10h 36m
Waxing Crescent, 30% of the Moon is Illuminated
Feb 15
Waxing Crescent
Feb 17
First Quarter
Feb 25
Full
Mar 4
Last Quarter
Mar 11
New

Hourly Weather History & Observations

Time (CST) Temp. Windchill Dew Point Humidity Pressure Visibility Wind Dir Wind Speed Gust Speed Precip Events Conditions
12:24 AM 21.2 °F 8.9 °F 14.0 °F 74% 30.17 in 10.0 mi NW 12.7 mph - N/A   Clear
12:35 AM 20.7 °F 8.2 °F 14.2 °F 76% 30.18 in 10.0 mi NW 12.7 mph - N/A   Clear
12:55 AM 20.3 °F 7.2 °F 13.6 °F 75% 30.18 in 10.0 mi NW 13.8 mph - N/A   Clear
1:15 AM 19.9 °F 6.7 °F 12.9 °F 74% 30.18 in 10.0 mi NW 13.8 mph - N/A   Clear
1:35 AM 19.4 °F 6.6 °F 12.9 °F 76% 30.19 in 10.0 mi NW 12.7 mph - N/A   Clear
1:55 AM 19.2 °F 7.0 °F 12.6 °F 75% 30.19 in 10.0 mi NW 11.5 mph - N/A   Clear
2:15 AM 18.5 °F 5.5 °F 12.2 °F 76% 30.20 in 10.0 mi NW 12.7 mph - N/A   Clear
2:35 AM 18.1 °F 4.4 °F 12.0 °F 77% 30.20 in 10.0 mi NW 13.8 mph - N/A   Clear
2:55 AM 17.6 °F 5.0 °F 11.5 °F 77% 30.21 in 10.0 mi NW 11.5 mph - N/A   Clear
3:15 AM 17.2 °F 3.9 °F 11.5 °F 78% 30.21 in 10.0 mi NW 12.7 mph - N/A   Clear
3:35 AM 16.7 °F 2.0 °F 11.1 °F 79% 30.21 in 10.0 mi NW 15.0 mph - N/A   Clear
3:55 AM 16.3 °F 2.1 °F 10.4 °F 77% 30.21 in 10.0 mi NW 13.8 mph 20.7 mph N/A   Clear
4:15 AM 15.8 °F 1.4 °F 10.0 °F 78% 30.22 in 10.0 mi WNW 13.8 mph - N/A   Clear
4:35 AM 15.6 °F 2.5 °F 9.5 °F 77% 30.22 in 10.0 mi NW 11.5 mph - N/A   Clear
4:55 AM 15.1 °F 1.8 °F 8.8 °F 76% 30.23 in 10.0 mi WNW 11.5 mph - N/A   Clear
5:15 AM 14.9 °F 2.3 °F 7.3 °F 72% 30.23 in 10.0 mi WNW 10.4 mph - N/A   Clear
5:35 AM 14.5 °F 0.5 °F 7.5 °F 74% 30.23 in 10.0 mi WNW 12.7 mph - N/A   Clear
5:55 AM 14.0 °F -0.8 °F 7.3 °F 75% 30.24 in 10.0 mi WNW 13.8 mph - N/A   Clear
6:15 AM 13.8 °F 0.2 °F 7.2 °F 75% 30.24 in 10.0 mi WNW 11.5 mph - N/A   Clear
6:35 AM 13.5 °F -0.2 °F 7.2 °F 76% 30.24 in 10.0 mi WNW 11.5 mph - N/A   Clear
6:55 AM 13.1 °F 0.1 °F 7.3 °F 78% 30.24 in 10.0 mi WNW 10.4 mph - N/A   Clear
7:15 AM 13.1 °F -2.6 °F 7.2 °F 77% 30.25 in 10.0 mi WNW 15.0 mph - N/A   Clear
7:35 AM 13.1 °F -2.0 °F 7.2 °F 77% 30.26 in 10.0 mi WNW 13.8 mph - N/A   Clear
8:15 AM 13.6 °F -3.0 °F 7.9 °F 78% 30.27 in 10.0 mi NW 17.3 mph 23.0 mph N/A   Clear
8:35 AM 14.0 °F -1.4 °F 8.2 °F 78% 30.27 in 10.0 mi NW 15.0 mph - N/A   Scattered Clouds
9:15 AM 15.4 °F -0.6 °F 9.1 °F 76% 30.28 in 10.0 mi WNW 17.3 mph - N/A   Scattered Clouds
9:35 AM 16.0 °F 0.6 °F 9.5 °F 76% 30.28 in 10.0 mi WNW 16.1 mph - N/A   Scattered Clouds
9:55 AM 16.3 °F 1.0 °F 9.9 °F 76% 30.29 in 10.0 mi NW 16.1 mph - N/A   Clear
10:15 AM 17.2 °F 2.7 °F 11.1 °F 77% 30.29 in 10.0 mi NW 15.0 mph - N/A   Clear
10:35 AM 18.1 °F 3.4 °F 11.1 °F 74% 30.29 in 10.0 mi NW 16.1 mph - N/A   Clear
10:55 AM 19.0 °F 5.0 °F 11.5 °F 72% 30.29 in 10.0 mi NW 15.0 mph - N/A   Clear
11:15 AM 19.9 °F 6.2 °F 12.4 °F 72% 30.29 in 10.0 mi NW 15.0 mph - N/A   Clear
11:35 AM 20.3 °F 5.7 °F 12.6 °F 72% 30.29 in 10.0 mi NW 17.3 mph - N/A   Clear
11:55 AM 20.8 °F 6.8 °F 12.4 °F 70% 30.28 in 10.0 mi NW 16.1 mph - N/A   Clear
12:15 PM 21.6 °F 8.2 °F 13.8 °F 72% 30.28 in 10.0 mi NW 15.0 mph - N/A   Scattered Clouds
12:35 PM 22.1 °F 8.9 °F 13.5 °F 69% 30.28 in 10.0 mi NW 15.0 mph - N/A   Scattered Clouds
12:55 PM 22.6 °F 10.1 °F 13.8 °F 69% 30.28 in 10.0 mi NW 13.8 mph - N/A   Scattered Clouds
1:15 PM 22.5 °F 9.9 °F 13.5 °F 68% 30.28 in 10.0 mi NW 13.8 mph 21.9 mph N/A   Clear
1:35 PM 23.4 °F 10.6 °F 14.2 °F 68% 30.28 in 10.0 mi NW 15.0 mph - N/A   Scattered Clouds
1:55 PM 23.7 °F 10.1 °F 14.4 °F 67% 30.28 in 10.0 mi WNW 17.3 mph 20.7 mph N/A   Scattered Clouds
2:15 PM 24.3 °F 11.7 °F 14.4 °F 66% 30.28 in 10.0 mi WNW 15.0 mph 20.7 mph N/A   Mostly Cloudy
2:35 PM 23.9 °F 11.2 °F 13.8 °F 65% 30.27 in 10.0 mi WNW 15.0 mph - N/A   Mostly Cloudy
2:55 PM 24.4 °F 10.6 °F 14.2 °F 65% 30.27 in 10.0 mi NW 18.4 mph - N/A   Mostly Cloudy
3:15 PM 23.9 °F 10.8 °F 13.6 °F 65% 30.27 in 10.0 mi NW 16.1 mph - N/A   Scattered Clouds
3:35 PM 24.3 °F 11.7 °F 13.5 °F 63% 30.27 in 10.0 mi NW 15.0 mph - N/A   Scattered Clouds
3:55 PM 23.2 °F 9.8 °F 13.6 °F 67% 30.27 in 10.0 mi NW 16.1 mph 20.7 mph N/A   Scattered Clouds
4:15 PM 23.2 °F 8.6 °F 13.5 °F 66% 30.28 in 10.0 mi NW 19.6 mph 23.0 mph N/A   Mostly Cloudy
4:35 PM 23.4 °F 10.1 °F 13.6 °F 66% 30.28 in 10.0 mi NW 16.1 mph - N/A   Scattered Clouds
4:55 PM 23.0 °F 8.7 °F 13.5 °F 67% 30.28 in 10.0 mi NW 18.4 mph - N/A   Clear
5:15 PM 21.7 °F 7.5 °F 13.1 °F 69% 30.28 in 10.0 mi NW 17.3 mph 20.7 mph N/A   Clear
5:35 PM 21.6 °F 7.8 °F 12.7 °F 69% 30.28 in 10.0 mi NW 16.1 mph - N/A   Clear
5:55 PM 20.8 °F 7.9 °F 12.7 °F 71% 30.29 in 10.0 mi NW 13.8 mph - N/A   Clear
6:15 PM 20.3 °F 7.2 °F 12.7 °F 73% 30.29 in 10.0 mi WNW 13.8 mph - N/A   Clear
6:35 PM 19.9 °F 7.3 °F 12.7 °F 74% 30.29 in 10.0 mi NW 12.7 mph - N/A   Clear
6:55 PM 19.4 °F 6.6 °F 11.8 °F 72% 30.29 in 10.0 mi NW 12.7 mph - N/A   Clear
7:15 PM 19.0 °F 7.5 °F 11.7 °F 73% 30.29 in 10.0 mi NW 10.4 mph - N/A   Clear
7:35 PM 18.5 °F 6.8 °F 11.5 °F 74% 30.29 in 10.0 mi NW 10.4 mph - N/A   Clear
7:55 PM 18.0 °F 6.9 °F 11.3 °F 75% 30.29 in 10.0 mi NW 9.2 mph - N/A   Clear
8:15 PM 17.4 °F 5.4 °F 11.3 °F 77% 30.29 in 10.0 mi NW 10.4 mph - N/A   Clear
8:35 PM 16.9 °F 6.4 °F 11.3 °F 79% 30.29 in 10.0 mi WNW 8.1 mph - N/A   Clear
8:55 PM 16.7 °F 5.3 °F 10.8 °F 77% 30.29 in 10.0 mi NW 9.2 mph - N/A   Clear
9:15 PM 16.2 °F 4.7 °F 10.4 °F 78% 30.29 in 10.0 mi NW 9.2 mph - N/A   Clear
9:35 PM 15.6 °F 4.0 °F 10.0 °F 79% 30.29 in 10.0 mi NW 9.2 mph - N/A   Clear
9:55 PM 15.4 °F 4.6 °F 9.7 °F 78% 30.29 in 10.0 mi NW 8.1 mph - N/A   Clear
10:15 PM 15.1 °F 3.3 °F 9.5 °F 79% 30.29 in 10.0 mi NW 9.2 mph - N/A   Clear
10:35 PM 14.9 °F 1.6 °F 9.5 °F 79% 30.29 in 10.0 mi NW 11.5 mph - N/A   Clear
10:55 PM 14.7 °F 2.9 °F 9.3 °F 79% 30.28 in 10.0 mi NW 9.2 mph - N/A   Clear
11:15 PM 14.5 °F 1.9 °F 9.1 °F 79% 30.28 in 10.0 mi NW 10.4 mph - N/A   Clear
11:35 PM 14.0 °F 2.0 °F 8.8 °F 80% 30.28 in 10.0 mi NW 9.2 mph - N/A   Clear
11:55 PM 14.0 °F 1.2 °F 9.1 °F 81% 30.28 in 10.0 mi NW 10.4 mph - N/A   Clear